SCATSAT 1

Last updated on Thu Oct 30 2025 00:02:32 GMT+0000 (Coordinated Universal Time)

1 41790U 16059H 25302.40533816 .00002116 00000+0 28914-3 0 9990 2 41790 98.1526 358.5136 0054142 271.3792 88.1216 14.78702121 67475
UTC large
Height (km)
Speed (km/s)
/
Latitude / Longitude
Inclination (degrees)
Orbital Period (minutes)
Azimuth
Elevation
Range (km)
Doppler Factor

Next 0 passes for location: London (51.5072 / 0.1276)

Sorry there are no passes over London.